Location: Gerlach
(40.6516°N, 119.3568°W)
Time: 21:32:05
(UTC-08:00)

Courier 1B - Visible Passes

Search period start: 29 January 2023 00:00
Search period end: 08 February 2023 00:00
Orbit: 962 x 1209 km, 28.3° (Epoch: 29 January)

Date Brightness Start Highest point End Pass type
(mag) Time Alt. Az. Time Alt. Az. Time Alt. Az.
29 Jan 9.8 18:55:56 10° SW 18:59:42 16° SSW 19:03:32 10° SSE visible
30 Jan 9.7 18:01:49 10° WSW 18:06:09 19° SSW 18:10:35 10° SSE visible
01 Feb 10.0 18:09:32 10° SW 18:12:05 12° SSW 18:14:40 10° S visible
